Tracking 22836 objects as of 16-Apr-2021
HD Live streaming from Space Station
objects crossing your sky now

STARLINK-1809

Track STARLINK-1809 now!
10-day predictions
STARLINK-1809 is classified as:


NORAD ID: 46708
Int'l Code: 2020-073AQ
Perigee: 549.5 km
Apogee: 559.2 km
Inclination: 53.1 °
Period: 95.6 minutes
Semi major axis: 6925 km
RCS: Unknown
Launch date: October 18, 2020
Source: United States (US)
Launch site: AIR FORCE EASTERN TEST RANGE (AFETR)
aabbcc
Your satellite tracking list
Your tracking list is empty




NASA's NSSDC Master Catalog

Two Line Element Set (TLE):
1 46708U 20073AQ  21105.85457417 -.00000287  00000-0 -19344-6 0  9993
2 46708  53.0556 332.0011 0007029   4.0571 356.0474 15.06397237 27793
Source of the keplerian elements: AFSPC